Tehachapi, CA

11:17 AM PDT on August 21, 2017 (GMT -0700)
Tehachapi Municipal

Weather History for KTSP - December, 2013

Change the Weather History Date:

Tuesday, December 17, 2013

  Actual Average Record
Temperature  
Mean Temperature 56 °F -  
Max Temperature 66 °F 52 °F 66 °F (2013)
Min Temperature 46 °F 32 °F 21 °F (2016)
Degree Days  
Heating Degree Days 9    
Growing Degree Days 6 (Base 50)    
Moisture  
Dew Point 16 °F    
Average Humidity 21    
Maximum Humidity 34    
Minimum Humidity 14    
Precipitation  
Precipitation 0.00 in - - ()
Sea Level Pressure  
Sea Level Pressure 30.25 in    
Wind  
Wind Speed 12 mph (ESE)    
Max Wind Speed 18 mph    
Max Gust Speed 24 mph    
Visibility 10 miles    
Events      
Averages and records for this station are not official NWS values.
T = Trace of Precipitation, MM = Missing Value Source: NWS Daily Summary

Daily Weather History Graph

Daily Weather History Graph

Search for Another Location

Airport or City:

Trip Planner

Search our weather history database for the weather conditions in past years. The results will help you decide how hot, cold, wet, or windy it might be!

Date:

Astronomy

Dec. 17, 2013 Rise Set
Actual Time 6:56 AM PST 4:44 PM PST
Civil Twilight 6:27 AM PST 5:12 PM PST
Nautical Twilight 5:56 AM PST 5:43 PM PST
Astronomical Twilight 5:25 AM PST 6:14 PM PST
Moon 5:25 PM PST (12/17) 6:58 AM PST (12/17)
Length of Visible Light 10h 44m
Length of Day
9h 47m
Full, 100% of the Moon is Illuminated
Dec 17
Full
Dec 25
Last Quarter
Jan 1
New
Jan 7
First Quarter
Jan 15
Full

Hourly Weather History & Observations

Time (PST) Temp. Windchill Dew Point Humidity Pressure Visibility Wind Dir Wind Speed Gust Speed Precip Events Conditions
12:15 AM 53.6 °F - 15.8 °F 22% 30.31 in 10.0 mi East 11.5 mph - N/A   Clear
12:35 AM 55.4 °F - 15.8 °F 21% 30.30 in 10.0 mi East 13.8 mph - N/A   Clear
12:55 AM 55.4 °F - 15.8 °F 21% 30.30 in 10.0 mi East 12.7 mph - N/A   Clear
1:15 AM 55.4 °F - 15.8 °F 21% 30.30 in 10.0 mi East 12.7 mph 19.6 mph N/A   Clear
1:35 AM 50.0 °F - 15.8 °F 26% 30.31 in 10.0 mi East 12.7 mph - N/A   Clear
1:55 AM 55.4 °F - 15.8 °F 21% 30.31 in 10.0 mi East 9.2 mph - N/A   Clear
2:15 AM 53.6 °F - 15.8 °F 22% 30.31 in 10.0 mi East 10.4 mph - N/A   Clear
2:35 AM 55.4 °F - 15.8 °F 21% 30.31 in 10.0 mi East 9.2 mph - N/A   Clear
2:55 AM 55.4 °F - 15.8 °F 21% 30.31 in 10.0 mi East 11.5 mph - N/A   Clear
3:15 AM 55.4 °F - 14.0 °F 20% 30.31 in 10.0 mi East 10.4 mph - N/A   Clear
3:35 AM 55.4 °F - 15.8 °F 21% 30.30 in 10.0 mi East 10.4 mph - N/A   Clear
3:55 AM 53.6 °F - 15.8 °F 22% 30.30 in 10.0 mi East 10.4 mph - N/A   Clear
4:15 AM 53.6 °F - 14.0 °F 21% 30.29 in 10.0 mi East 10.4 mph - N/A   Clear
4:35 AM 51.8 °F - 15.8 °F 24% 30.30 in 10.0 mi East 11.5 mph - N/A   Clear
4:55 AM 51.8 °F - 15.8 °F 24% 30.29 in 10.0 mi East 11.5 mph - N/A   Clear
5:15 AM 53.6 °F - 15.8 °F 22% 30.29 in 10.0 mi East 12.7 mph - N/A   Clear
5:35 AM 51.8 °F - 15.8 °F 24% 30.30 in 10.0 mi East 11.5 mph - N/A   Clear
5:55 AM 53.6 °F - 14.0 °F 21% 30.29 in 10.0 mi ESE 10.4 mph - N/A   Clear
6:15 AM 53.6 °F - 15.8 °F 22% 30.30 in 10.0 mi East 12.7 mph - N/A   Clear
6:35 AM 53.6 °F - 15.8 °F 22% 30.30 in 10.0 mi East 12.7 mph - N/A   Clear
6:55 AM 53.6 °F - 15.8 °F 22% 30.30 in 10.0 mi East 11.5 mph - N/A   Clear
7:15 AM 53.6 °F - 15.8 °F 22% 30.30 in 10.0 mi East 13.8 mph - N/A   Clear
7:35 AM 53.6 °F - 15.8 °F 22% 30.31 in 10.0 mi East 12.7 mph - N/A   Clear
7:55 AM 55.4 °F - 15.8 °F 21% 30.31 in 10.0 mi East 12.7 mph - N/A   Clear
8:15 AM 55.4 °F - 15.8 °F 21% 30.31 in 10.0 mi East 11.5 mph 17.3 mph N/A   Clear
8:35 AM 55.4 °F - 15.8 °F 21% 30.32 in 10.0 mi East 11.5 mph 18.4 mph N/A   Clear
8:55 AM 59.0 °F - 15.8 °F 19% 30.32 in 10.0 mi East 13.8 mph - N/A   Clear
9:15 AM 59.0 °F - 17.6 °F 20% 30.32 in 10.0 mi ESE 12.7 mph 19.6 mph N/A   Clear
9:35 AM 60.8 °F - 15.8 °F 17% 30.32 in 10.0 mi ESE 12.7 mph - N/A   Clear
9:55 AM 62.6 °F - 17.6 °F 18% 30.32 in 10.0 mi ESE 12.7 mph 18.4 mph N/A   Clear
10:15 AM 64.4 °F - 15.8 °F 15% 30.31 in 10.0 mi SE 16.1 mph 20.7 mph N/A   Clear
10:35 AM 64.4 °F - 15.8 °F 15% 30.30 in 10.0 mi SE 17.3 mph 23.0 mph N/A   Clear
10:55 AM 64.4 °F - 15.8 °F 15% 30.30 in 10.0 mi SE 17.3 mph 23.0 mph N/A   Clear
11:35 AM 64.4 °F - 15.8 °F 15% 30.28 in 10.0 mi SE 15.0 mph 23.0 mph N/A   Clear
11:55 AM 64.4 °F - 15.8 °F 15% 30.27 in 10.0 mi SE 17.3 mph - N/A   Clear
12:15 PM 66.2 °F - 15.8 °F 14% 30.26 in 10.0 mi SE 17.3 mph - N/A   Clear
12:35 PM 64.4 °F - 15.8 °F 15% 30.24 in 10.0 mi SE 18.4 mph - N/A   Clear
12:55 PM 66.2 °F - 15.8 °F 14% 30.23 in 10.0 mi SE 18.4 mph 24.2 mph N/A   Clear
1:15 PM 66.2 °F - 15.8 °F 14% 30.23 in 10.0 mi SE 17.3 mph 21.9 mph N/A   Clear
1:35 PM 66.2 °F - 15.8 °F 14% 30.22 in 10.0 mi SE 16.1 mph 21.9 mph N/A   Clear
1:55 PM 66.2 °F - 15.8 °F 14% 30.22 in 10.0 mi ESE 16.1 mph - N/A   Clear
2:15 PM 66.2 °F - 15.8 °F 14% 30.21 in 10.0 mi ESE 16.1 mph 21.9 mph N/A   Clear
2:35 PM 66.2 °F - 15.8 °F 14% 30.21 in 10.0 mi SE 16.1 mph - N/A   Clear
2:55 PM 64.4 °F - 15.8 °F 15% 30.21 in 10.0 mi ESE 13.8 mph - N/A   Clear
3:15 PM 64.4 °F - 17.6 °F 16% 30.21 in 10.0 mi ESE 11.5 mph - N/A   Clear
3:35 PM 62.6 °F - 17.6 °F 18% 30.21 in 10.0 mi ESE 11.5 mph - N/A   Clear
3:55 PM 60.8 °F - 15.8 °F 17% 30.21 in 10.0 mi East 10.4 mph 17.3 mph N/A   Clear
4:15 PM 59.0 °F - 17.6 °F 20% 30.21 in 10.0 mi East 12.7 mph - N/A   Clear
4:35 PM 59.0 °F - 17.6 °F 20% 30.21 in 10.0 mi ESE 10.4 mph - N/A   Clear
4:55 PM 59.0 °F - 15.8 °F 19% 30.20 in 10.0 mi East 9.2 mph - N/A   Clear
5:15 PM 59.0 °F - 17.6 °F 20% 30.20 in 10.0 mi East 10.4 mph - N/A   Clear
5:35 PM 59.0 °F - 15.8 °F 19% 30.20 in 10.0 mi ESE 10.4 mph - N/A   Clear
5:55 PM 57.2 °F - 17.6 °F 21% 30.20 in 10.0 mi ESE 8.1 mph - N/A   Clear
6:15 PM 50.0 °F - 21.2 °F 32% 30.20 in 10.0 mi SE 10.4 mph - N/A   Clear
6:35 PM 50.0 °F - 21.2 °F 32% 30.20 in 10.0 mi ESE 10.4 mph - N/A   Clear
6:55 PM 55.4 °F - 15.8 °F 21% 30.20 in 10.0 mi ESE 11.5 mph - N/A   Clear
7:15 PM 57.2 °F - 15.8 °F 20% 30.20 in 10.0 mi East 10.4 mph - N/A   Clear
7:35 PM 57.2 °F - 15.8 °F 20% 30.19 in 10.0 mi East 10.4 mph - N/A   Clear
7:55 PM 57.2 °F - 15.8 °F 20% 30.19 in 10.0 mi East 12.7 mph - N/A   Clear
8:15 PM 57.2 °F - 15.8 °F 20% 30.19 in 10.0 mi East 10.4 mph - N/A   Clear
8:35 PM 57.2 °F - 15.8 °F 20% 30.19 in 10.0 mi East 11.5 mph - N/A   Clear
8:55 PM 57.2 °F - 14.0 °F 18% 30.20 in 10.0 mi East 6.9 mph - N/A   Clear
9:35 PM 57.2 °F - 14.0 °F 18% 30.20 in 10.0 mi SE 5.8 mph - N/A   Clear
9:55 PM 50.0 °F - 19.4 °F 30% 30.19 in 10.0 mi SSE 8.1 mph - N/A   Clear
10:15 PM 48.2 °F - 19.4 °F 32% 30.18 in 10.0 mi SSE 9.2 mph - N/A   Clear
10:35 PM 46.4 °F 41.1 °F 19.4 °F 34% 30.18 in 10.0 mi SE 11.5 mph - N/A   Clear
10:55 PM 46.4 °F 43.5 °F 19.4 °F 34% 30.17 in 10.0 mi East 5.8 mph - N/A   Clear
11:15 PM 46.4 °F 45.2 °F 19.4 °F 34% 30.15 in 10.0 mi NNE 3.5 mph - N/A   Clear
11:35 PM 46.4 °F 41.5 °F 19.4 °F 34% 30.14 in 10.0 mi ESE 10.4 mph - N/A   Clear
11:55 PM 46.4 °F 40.4 °F 19.4 °F 34% 30.13 in 10.0 mi SE 13.8 mph - N/A   Clear